[[{"header":{"parameterUnit":"m.s-1","parameterCategory":1,"la1":30.2991,"la2":30.254,"lo1":-89.0895,"lo2":-89.0444,"dy":0.0017,"dx":0.0017,"nx":28,"ny":28,"refTime":"2024-07-22T09:00:00:Z","depth":0,"parameterNumber":2,"parameterNumberName":"U-component_of_WINDS"},"data":[0,0,0,0,0,0,0,0,0,0,0,0,0,0,0,0,0,0,0,0,0,0,0,0,0,0,0,0,0,0,0,0,0,0,0,0,0,0,0,0,0,0,0,0,0,0,0,0,0,0,0,0,0,0,0,0,0,0,2.7267,2.7268,0,2.7296,2.7296,2.7297,2.725,2.7248,2.7247,2.7245,2.7277,2.7279,2.7281,0,0,0,0,0,0,0,0,0,0,0,0,0,2.7173,2.7175,2.7267,2.7268,2.7268,2.7296,2.7296,2.7297,2.725,2.7248,2.7246,2.7245,2.7276,2.7279,2.7281,0,0,0,0,0,0,0,0,0,0,0,0,0,2.7209,2.7175,2.7267,2.7248,2.7247,2.7296,2.7296,2.7297,2.7251,2.7248,2.7246,2.7244,2.7275,2.7278,2.7282,2.7352,0,0,2.7292,2.7294,0,0,0,0,0,0,0,0,2.7207,2.7213,2.7251,2.725,2.7248,2.7267,2.7274,2.7315,2.7251,2.7249,2.7245,2.7242,2.7275,2.7279,2.7289,2.7353,2.7354,2.7293,2.7295,2.7296,2.7297,0,0,0,0,0,0,0,2.7205,2.7211,2.7279,2.7251,2.725,2.7238,2.7241,2.7282,2.7276,2.7249,2.7246,2.725,2.7274,2.7286,2.729,2.7355,2.7293,2.7296,2.7298,2.7299,2.7475,2.7477,0,0,0,0,0,0,2.7204,2.7209,2.7278,2.728,2.7221,2.7242,2.7245,2.7263,2.7275,2.7274,2.7252,2.7248,2.7281,2.7286,2.7291,2.7371,2.7296,2.73,2.7302,2.7472,2.7475,2.7478,0,0,0,0,0,0,2.7202,2.7211,2.7277,2.7244,2.7251,2.7246,2.7267,2.7265,2.7277,2.7277,2.7276,2.7265,2.728,2.7286,2.7336,2.7372,2.7301,2.7304,2.7469,2.7473,2.7476,2.7534,0,0,0,0,0,0,2.72,2.721,2.7237,2.7244,2.7253,2.7322,2.727,2.7267,2.7283,2.7278,2.7289,2.7289,2.7278,2.7331,2.734,2.7375,2.7307,2.7466,2.7471,2.7475,2.7529,2.7539,2.7548,0,0,0,0,0,2.7197,2.7253,2.7238,2.7247,2.7286,2.7324,2.7329,2.7315,2.7286,2.7312,2.7312,2.7288,2.7367,2.7337,2.7346,2.7383,2.7463,2.7469,2.7475,2.7525,2.7537,2.7548,0,0,0,0,0,0,2.7251,2.7254,2.7238,2.7298,2.7311,2.7316,2.7349,2.7329,2.7351,2.7345,2.7328,2.7331,2.7384,2.7389,2.7355,2.745,2.741,2.7418,2.7445,2.7457,2.7467,2.7464,2.731,0,0,0,0,0,2.727,2.73,2.7301,2.7354,2.7361,2.7354,2.737,2.7358,2.7371,2.7376,2.738,2.7394,2.7421,2.7439,2.7465,2.753,2.7531,2.756,2.757,2.7578,2.7584,2.7617,2.7629,2.7497,2.7497,2.7497,0,0,2.7309,2.7314,2.7335,2.7365,2.7373,2.7404,2.7359,2.7394,2.7417,2.7382,2.7428,2.7432,2.7446,2.7503,2.7528,2.7509,2.7621,2.7585,2.7591,2.7593,2.7624,2.7636,2.7647,2.7501,2.75,2.7499,0,0,2.7396,2.7404,2.7448,2.7457,2.747,2.7464,2.7475,2.7483,2.7483,2.753,2.7503,2.753,2.7579,2.7589,2.7601,2.769,2.7669,2.7699,2.775,2.7781,2.7792,2.7801,2.7831,2.7842,2.7706,2.7706,2.7706,0,2.7443,2.7489,2.7473,2.751,2.7523,2.7492,2.7535,2.7545,2.7567,2.7577,2.7554,2.7612,2.762,2.7678,2.7699,2.7711,2.7721,2.7697,2.7792,2.7801,2.7809,2.7837,2.7849,2.771,2.7709,2.7709,2.7709,0,2.7546,2.7578,2.7612,2.7631,2.7649,2.7689,2.7679,2.7699,2.7685,2.7682,2.7729,2.7737,2.7762,2.7776,2.7764,2.7832,2.7818,2.7794,2.7754,2.7825,2.7851,2.7862,2.7715,2.7714,2.7713,2.7712,0,0,2.7668,2.7677,2.7689,2.7697,2.7708,2.7733,2.7772,2.7795,2.7812,2.7828,2.7858,2.7899,2.7876,2.7889,2.7878,2.7906,2.7974,2.7878,2.7878,2.7894,2.8047,2.8064,2.8077,2.796,2.7963,2.7964,2.8045,0,2.7753,2.7818,2.7804,2.7868,2.7897,2.7867,2.79,2.7911,2.7909,2.7933,2.7931,2.7959,2.7927,2.7935,2.7961,2.796,2.8005,2.7955,2.7988,2.799,2.7984,2.8091,2.811,2.8186,2.8056,2.8058,2.8059,0,2.7861,2.7879,2.7945,2.795,2.7962,2.7992,2.8011,2.8035,2.8046,2.8043,2.8057,2.804,2.8077,2.8037,2.8088,2.8054,2.8067,2.8069,2.8071,2.8073,2.8027,2.8094,2.821,2.8221,2.8075,2.8074,2.8073,0,2.794,2.7982,2.8026,2.8034,2.8042,2.8063,2.8067,2.8076,2.809,2.8108,2.8117,2.814,2.8151,2.8169,2.8158,2.813,2.821,2.8169,2.8207,2.8207,2.8224,2.8223,2.8343,2.8236,2.8236,2.8236,2.8235,0,2.8036,2.8077,2.8061,2.8089,2.8134,2.8118,2.8163,2.8164,2.8171,2.8198,2.8174,2.82,2.8185,2.8209,2.8201,2.8243,2.8249,2.8247,2.8244,2.8248,2.8248,2.8255,2.8249,2.8239,2.8238,2.8237,2.8237,0,2.8132,2.8123,2.8169,2.8172,2.8174,2.8207,2.8209,2.8234,2.823,2.8264,2.8271,2.8265,2.8292,2.8283,2.8313,2.8307,2.836,2.8352,2.8356,2.8353,2.8391,2.8386,2.8518,2.8533,2.8418,2.8419,2.842,0,2.8192,2.8223,2.8229,2.8245,2.825,2.8276,2.829,2.8275,2.8291,2.8305,2.8328,2.8353,2.8372,2.8417,2.8415,2.8437,2.8427,2.8472,2.843,2.8433,2.8425,2.8423,2.8425,2.8479,2.8481,2.8482,2.8483,0,2.83,2.8294,2.8315,2.8334,2.8352,2.8367,2.8379,2.8394,2.8379,2.8398,2.8425,2.844,2.8469,2.8493,2.8513,2.8517,2.8497,2.8496,2.8505,2.8509,2.8509,2.8507,2.8376,2.8493,2.8492,2.8491,2.849,2.849,2.8379,2.8404,2.8411,2.8435,2.8443,2.8455,2.8478,2.8476,2.8498,2.852,2.851,2.854,2.8549,2.8573,2.858,2.8604,2.8587,2.8601,2.8604,2.8608,2.8611,2.8507,2.8608,2.8607,2.8607,2.8607,2.8607,0,2.8483,2.8486,2.8508,2.8526,2.8545,2.8524,2.8537,2.8553,2.858,2.859,2.8609,2.8639,2.8662,2.8661,2.8683,2.8701,2.8693,2.8707,2.8705,2.8706,2.8627,2.8615,2.8714,2.8714,2.8714,2.8714,2.8714,2.8714,2.8539,2.858,2.8575,2.8619,2.8622,2.865,2.8659,2.867,2.8677,2.8711,2.873,2.8729,2.8735,2.8756,2.8776,2.8775,2.8783,2.8801,2.8797,2.8722,2.8712,2.8701,2.869,2.8803,2.8804,2.8874,2.8874,2.8875]},{"header":{"parameterUnit":"m.s-1","parameterCategory":1,"la1":30.2991,"la2":30.254,"lo1":-89.0895,"lo2":-89.0444,"dy":0.0017,"dx":0.0017,"nx":28,"ny":28,"refTime":"2024-07-22T09:00:00:Z","depth":0,"parameterNumber":3,"parameterNumberName":"V-component_of_WINDS"},"data":[0,0,0,0,0,0,0,0,0,0,0,0,0,0,0,0,0,0,0,0,0,0,0,0,0,0,0,0,0,0,0,0,0,0,0,0,0,0,0,0,0,0,0,0,0,0,0,0,0,0,0,0,0,0,0,0,0,0,2.9972,2.9973,0,3.0014,3.0014,3.0014,3.0001,3.0,2.9999,2.9999,3.0038,3.004,3.0042,0,0,0,0,0,0,0,0,0,0,0,0,0,2.988,2.9882,2.9972,2.9973,2.9973,3.0013,3.0014,3.0015,3.0001,3.0,2.9999,2.9998,3.0038,3.004,3.0042,0,0,0,0,0,0,0,0,0,0,0,0,0,2.992,2.9882,2.9972,2.9972,2.9972,3.0013,3.0014,3.0015,3.0001,3.0,2.9999,2.9998,3.0037,3.004,3.0043,3.0086,0,0,3.0051,3.0052,0,0,0,0,0,0,0,0,2.9918,2.9924,2.9971,2.9972,2.9972,3.0001,2.9996,3.0039,3.0002,2.999,2.9999,2.9997,3.0027,3.003,3.0041,3.0088,3.009,3.0051,3.0053,3.0054,3.0055,0,0,0,0,0,0,0,2.9915,2.9922,2.9989,2.9972,2.9973,2.9969,2.9973,3.0004,3.0015,2.9991,2.999,2.9995,3.0027,3.0038,3.0042,3.009,3.0051,3.0054,3.0056,3.0057,3.0175,3.0177,0,0,0,0,0,0,2.9913,2.992,2.9987,2.999,2.9942,2.9971,2.9976,2.9993,3.0015,3.0017,2.9997,2.9995,3.0034,3.0038,3.0043,3.0096,3.0054,3.0057,3.0059,3.0174,3.0176,3.0177,0,0,0,0,0,0,2.9911,2.9919,2.9986,2.9955,2.9963,2.9974,2.9993,2.9994,3.0006,3.0019,3.0021,3.0006,3.0033,3.0039,3.0076,3.0097,3.0058,3.0061,3.0172,3.0175,3.0177,3.0202,0,0,0,0,0,0,2.9908,2.9918,2.9935,2.9955,2.9965,3.0018,2.9995,2.9996,3.0011,3.0009,3.0029,3.0031,3.0033,3.0072,3.0079,3.01,3.0063,3.017,3.0173,3.0176,3.0199,3.0205,3.021,0,0,0,0,0,2.9905,2.994,2.9936,2.9945,2.9986,3.002,3.0025,3.0027,3.0013,3.003,3.0038,3.003,3.0094,3.0076,3.0083,3.0106,3.0169,3.0173,3.0176,3.0197,3.0204,3.0209,0,0,0,0,0,0,2.9922,2.9943,2.9939,2.9982,2.9999,3.0017,3.0039,3.0034,3.0055,3.0052,3.0053,3.0058,3.0096,3.0104,3.0084,3.015,3.0129,3.0134,3.0143,3.0149,3.0154,3.0152,3.0065,0,0,0,0,0,2.9931,2.9957,2.9973,3.001,3.0019,3.0028,3.0042,3.0042,3.006,3.0067,3.0078,3.0095,3.0119,3.0134,3.0157,3.02,3.0204,3.022,3.0225,3.0229,3.0233,3.0257,3.0264,3.0188,3.0188,3.0188,0,0,2.9949,2.9964,2.998,3.0014,3.0027,3.0053,3.0034,3.0062,3.0082,3.0071,3.0107,3.0115,3.0134,3.0175,3.0193,3.0183,3.0255,3.0233,3.0236,3.0239,3.0261,3.0269,3.0275,3.0191,3.019,3.019,0,0,2.9996,3.001,3.0042,3.0056,3.0077,3.0083,3.0091,3.011,3.0116,3.0152,3.0144,3.0167,3.0208,3.0222,3.0234,3.0287,3.028,3.0294,3.0321,3.0344,3.035,3.0355,3.0374,3.0381,3.0298,3.0298,3.0298,0,3.0016,3.0057,3.0059,3.0089,3.0104,3.0096,3.0128,3.0141,3.0168,3.0179,3.0167,3.0219,3.0231,3.0274,3.0287,3.0297,3.0306,3.0292,3.0349,3.0354,3.0359,3.0377,3.0384,3.03,3.0299,3.0299,3.0299,0,3.008,3.0108,3.0132,3.0159,3.0177,3.0207,3.0214,3.0231,3.0229,3.0236,3.0273,3.0287,3.0312,3.0323,3.0321,3.0366,3.0359,3.0348,3.0328,3.0368,3.0385,3.0392,3.0302,3.0301,3.0301,3.03,0,0,3.014,3.0169,3.0177,3.019,3.0212,3.0234,3.0264,3.029,3.0304,3.0323,3.0348,3.0383,3.0373,3.0387,3.0387,3.0407,3.0449,3.0394,3.0394,3.0404,3.0499,3.0508,3.0516,3.0444,3.0445,3.0446,3.0498,0,3.0189,3.0244,3.0247,3.0295,3.0321,3.0314,3.0341,3.0357,3.0364,3.0386,3.0393,3.0418,3.0403,3.0412,3.0431,3.0439,3.0468,3.0436,3.0467,3.0468,3.0463,3.0525,3.0534,3.0581,3.0504,3.0505,3.0506,0,3.0254,3.0276,3.0328,3.0348,3.0359,3.0382,3.0406,3.0428,3.0446,3.0449,3.0465,3.0463,3.0493,3.0471,3.0512,3.049,3.0503,3.0509,3.0511,3.0514,3.049,3.053,3.0597,3.0604,3.0517,3.0516,3.0515,0,3.0293,3.0335,3.0372,3.0383,3.0406,3.0423,3.0434,3.0451,3.0466,3.0486,3.0496,3.052,3.0533,3.0551,3.0554,3.0538,3.0595,3.0574,3.0599,3.0599,3.0612,3.0611,3.0682,3.0619,3.0619,3.0619,3.0619,0,3.0348,3.038,3.039,3.0412,3.0448,3.0451,3.0486,3.0495,3.051,3.0533,3.0528,3.055,3.0553,3.0576,3.0578,3.0612,3.0618,3.0621,3.0621,3.0622,3.0622,3.0631,3.0628,3.0621,3.062,3.062,3.062,0,3.0398,3.0405,3.0445,3.0464,3.047,3.0495,3.0511,3.0533,3.0539,3.0569,3.0576,3.0586,3.0612,3.0617,3.0648,3.0649,3.069,3.0687,3.0684,3.0684,3.0709,3.0707,3.0789,3.0799,3.0729,3.073,3.0731,0,3.0433,3.0457,3.048,3.0496,3.0507,3.0533,3.0549,3.0552,3.0569,3.0592,3.061,3.0636,3.0657,3.07,3.0709,3.0732,3.073,3.0757,3.0733,3.0733,3.073,3.0729,3.0732,3.0761,3.0762,3.0763,3.0763,0,3.0494,3.0497,3.0521,3.0546,3.0566,3.0586,3.0604,3.0617,3.0623,3.0642,3.067,3.0686,3.0718,3.0744,3.0767,3.0777,3.0771,3.0771,3.0778,3.0779,3.0776,3.0778,3.0697,3.0769,3.0768,3.0768,3.0768,3.0767,3.0538,3.0559,3.0579,3.0606,3.062,3.0638,3.0659,3.0669,3.0692,3.0719,3.0719,3.0749,3.0766,3.0798,3.0809,3.0832,3.0823,3.0833,3.0836,3.0838,3.0841,3.0773,3.0836,3.0836,3.0835,3.0835,3.0835,0,3.0599,3.0612,3.0636,3.0663,3.0684,3.0678,3.0698,3.0716,3.0743,3.076,3.0781,3.0813,3.0838,3.0849,3.0873,3.0889,3.0887,3.0896,3.0895,3.0897,3.0847,3.0839,3.0897,3.0897,3.0897,3.0897,3.0897,3.0897,3.0634,3.0671,3.0676,3.072,3.0731,3.0762,3.0774,3.079,3.0804,3.084,3.0861,3.0868,3.0883,3.0908,3.0931,3.0933,3.0942,3.0952,3.0953,3.0907,3.0901,3.0895,3.0887,3.0954,3.0954,3.1002,3.1002,3.1002]}]]